Location: Caixon
(43.4106°N, 0.0273°E)
Time: 16:10:28
(UTC+00:00)

Lacrosse 5 - Pass Details

Date: 16 October 2021
Orbit: 714 x 724 km, 57.0° (Epoch: 28 August)

Event Time Altitude Azimuth Distance (km) Brightness Sun altitude
Exits shadow 03:07:24 17° 11° (N) 1,799 4.2 -34.3°
Drops below altitude 10° 03:09:53 10° 39° (NE) 2,211 5.0 -33.9°
Sets 03:13:04 0° 60° (ENE) 3,130 6.2 -33.3°
